GW3945 Weather Reports


Display with metric or nautical units.
time (UTC)temp
F
wind
direction
speed
MPH
gust
MPH
rain 1hr
in
rain 24hr
in
rain mn
in
humidity
%
barometer
mb
20260508012734 54 183 0.0 0.0 0.00 0.00 0.00 75 1014.1
20260508012231 54 184 0.0 0.0 0.00 0.00 0.00 68 1014.0
20260508011729 55 191 0.0 0.0 0.00 0.00 0.00 69 1013.8
20260508011226 55 183 0.0 0.0 0.00 0.00 0.00 71 1013.8
20260508010722 56 183 0.0 0.0 0.00 0.00 0.00 70 1013.9
20260508010221 56 183 0.0 0.0 0.00 0.00 0.00 60 1013.4
20260508005717 56 184 0.0 0.0 0.00 0.00 0.00 61 1013.5
20260508005214 57 178 0.0 0.0 0.00 0.00 0.00 58 1013.7
20260508004710 57 178 0.0 0.0 0.00 0.00 0.00 56 1013.6
20260508004206 57 178 0.0 0.0 0.00 0.00 0.00 56 1013.6
20260508003703 58 178 0.0 0.0 0.00 0.00 0.00 55 1013.8
20260508003201 58 178 0.0 0.0 0.00 0.00 0.00 55 1013.6
20260508002656 58 178 0.0 0.0 0.00 0.00 0.00 54 1013.5
20260508002155 59 178 0.0 0.0 0.00 0.00 0.00 54 1013.4
20260508001649 59 182 0.0 0.0 0.00 0.00 0.00 53 1013.3
20260508001146 59 186 0.0 0.0 0.00 0.00 0.00 54 1013.3
20260508000642 60 185 0.0 0.0 0.00 0.00 0.00 55 1013.3
20260508000139 60 179 0.0 0.0 0.00 0.00 0.00 57 1013.2
20260507235636 60 175 0.0 0.0 0.00 0.00 0.00 51 1013.0
20260507235133 60 184 0.0 0.0 0.00 0.00 0.00 49 1012.8
20260507234630 61 190 0.0 0.0 0.00 0.00 0.00 49 1013.2
20260507234126 61 203 0.0 0.0 0.00 0.00 0.00 49 1012.8
20260507233623 61 238 0.0 0.0 0.00 0.00 0.00 49 1013.2
20260507233122 61 185 0.0 0.0 0.00 0.00 0.00 49 1012.9
20260507232618 62 175 0.0 0.0 0.00 0.00 0.00 50 1013.0
20260507232115 62 179 0.0 0.0 0.00 0.00 0.00 47 1012.9
20260507231611 62 207 0.0 0.0 0.00 0.00 0.00 49 1013.0
20260507231109 62 180 0.0 0.0 0.00 0.00 0.00 47 1013.0
20260507230605 62 172 0.0 0.0 0.00 0.00 0.00 49 1013.2
20260507225557 64 168 0.0 0.0 0.00 0.00 0.00 48 1013.0
20260507225054 65 217 0.0 0.0 0.00 0.00 0.00 45 1013.2
20260507224549 65 275 0.0 0.0 0.00 0.00 0.00 44 1012.9
20260507224046 66 254 0.0 0.0 0.00 0.00 0.00 44 1013.0
20260507223542 66 223 1.0 2.0 0.00 0.00 0.00 43 1013.2
20260507223039 66 190 0.0 0.0 0.00 0.00 0.00 42 1013.2
20260507222537 65 176 0.0 0.0 0.00 0.00 0.00 46 1013.3
20260507222033 65 170 0.0 0.0 0.00 0.00 0.00 46 1013.2
20260507221529 65 283 0.0 0.0 0.00 0.00 0.00 47 1013.2
20260507221026 66 166 0.0 0.0 0.00 0.00 0.00 43 1013.3
20260507220523 66 200 0.0 0.0 0.00 0.00 0.00 43 1013.2
20260507220021 66 173 0.0 1.0 0.00 0.00 0.00 42 1013.3
20260507215517 66 189 0.0 0.0 0.00 0.00 0.00 45 1013.4
20260507215015 67 203 0.0 0.0 0.00 0.00 0.00 40 1013.2
20260507214512 67 126 0.0 0.0 0.00 0.00 0.00 40 1013.2
20260507214007 66 184 0.0 0.0 0.00 0.00 0.00 41 1013.3
20260507213504 66 183 0.0 0.0 0.00 0.00 0.00 46 1013.2
20260507213001 67 198 0.0 0.0 0.00 0.00 0.00 40 1013.4
20260507212456 66 184 0.0 0.0 0.00 0.00 0.00 43 1013.0
20260507211954 66 226 0.0 0.0 0.00 0.00 0.00 43 1012.8
20260507211450 66 299 0.0 0.0 0.00 0.00 0.00 41 1013.2
20260507210947 66 186 0.0 0.0 0.00 0.00 0.00 44 1013.2
20260507210444 65 136 0.0 0.0 0.00 0.00 0.00 43 1012.9
20260507205940 65 117 0.0 0.0 0.00 0.00 0.00 46 1012.9
20260507205438 65 219 0.0 1.0 0.00 0.00 0.00 43 1013.0
20260507204934 65 168 0.0 0.0 0.00 0.00 0.00 47 1013.0
20260507204430 64 184 0.0 0.0 0.00 0.00 0.00 45 1013.0
20260507203928 65 170 0.0 0.0 0.00 0.00 0.00 45 1013.2
20260507203426 65 185 0.0 0.0 0.00 0.00 0.00 44 1013.4
20260507202922 65 131 0.0 0.0 0.00 0.00 0.00 44 1013.2
20260507202419 65 189 0.0 0.0 0.00 0.00 0.00 48 1013.0
20260507201914 64 234 0.0 0.0 0.00 0.00 0.00 50 1013.4
20260507201410 64 199 0.0 0.0 0.00 0.00 0.00 45 1012.9
20260507200907 64 209 0.0 0.0 0.00 0.00 0.00 44 1013.3
20260507200403 64 214 0.0 0.0 0.00 0.00 0.00 47 1013.2
20260507195858 63 163 0.0 0.0 0.00 0.00 0.00 47 1013.3
20260507195356 63 303 0.0 1.0 0.00 0.00 0.00 44 1013.0
20260507194853 63 182 0.0 0.0 0.00 0.00 0.00 42 1013.5
20260507194349 63 146 0.0 0.0 0.00 0.00 0.00 48 1013.4
20260507193846 63 273 0.0 0.0 0.00 0.00 0.00 45 1013.6
20260507193343 63 212 0.0 0.0 0.00 0.00 0.00 46 1013.3
20260507192839 63 167 0.0 1.0 0.00 0.00 0.00 44 1013.5
20260507192336 63 176 0.0 0.0 0.00 0.00 0.00 45 1013.4
20260507191832 63 167 0.0 0.0 0.00 0.00 0.00 49 1013.7
20260507191328 63 165 0.0 0.0 0.00 0.00 0.00 48 1013.5
20260507190826 63 314 0.0 0.0 0.00 0.00 0.00 44 1013.6
20260507190324 63 270 0.0 1.0 0.00 0.00 0.00 44 1013.4
20260507185823 62 298 0.0 0.0 0.00 0.00 0.00 48 1013.4
20260507185319 62 223 0.0 0.0 0.00 0.00 0.00 46 1013.4
20260507184816 62 237 0.0 0.0 0.00 0.00 0.00 49 1013.4
20260507184314 62 184 0.0 1.0 0.00 0.00 0.00 47 1013.5
20260507183810 62 300 0.0 1.0 0.00 0.00 0.00 48 1013.6
20260507183308 62 241 2.0 3.0 0.00 0.00 0.00 48 1013.6
20260507182805 61 222 0.0 0.0 0.00 0.00 0.00 48 1013.5
20260507182300 61 259 0.0 1.0 0.00 0.00 0.00 48 1013.6
20260507181757 61 264 0.0 2.0 0.00 0.00 0.00 50 1013.7
20260507181253 61 178 0.0 1.0 0.00 0.00 0.00 50 1013.7
20260507180750 61 288 4.0 6.0 0.00 0.00 0.00 47 1013.8
20260507180247 61 188 0.0 0.0 0.00 0.00 0.00 50 1013.9
20260507175742 60 258 3.0 5.0 0.00 0.00 0.00 49 1013.6
20260507175240 61 110 0.0 0.0 0.00 0.00 0.00 49 1013.7
20260507174737 61 281 0.0 2.0 0.00 0.00 0.00 52 1013.6
20260507174235 60 276 1.0 2.0 0.00 0.00 0.00 49 1013.7
20260507173732 61 165 0.0 1.0 0.00 0.00 0.00 54 1014.1
20260507173229 61 164 0.0 0.0 0.00 0.00 0.00 59 1014.0
20260507172725 60 215 0.0 0.0 0.00 0.00 0.00 53 1014.1
20260507172223 60 337 0.0 2.0 0.00 0.00 0.00 52 1014.2
20260507171722 60 282 1.0 6.0 0.00 0.00 0.00 49 1014.1
20260507171220 59 183 0.0 0.0 0.00 0.00 0.00 50 1014.4
20260507170717 60 260 2.0 2.0 0.00 0.00 0.00 53 1014.4
20260507170214 60 276 0.0 0.0 0.00 0.00 0.00 53 1014.7
20260507165709 60 319 1.0 5.0 0.00 0.00 0.00 55 1014.4
20260507165206 59 300 2.0 3.0 0.00 0.00 0.00 51 1014.6
20260507164702 60 326 0.0 0.0 0.00 0.00 0.00 54 1014.5
20260507164159 60 171 0.0 0.0 0.00 0.00 0.00 56 1014.3
20260507163656 60 177 0.0 0.0 0.00 0.00 0.00 53 1014.7
20260507163154 60 264 2.0 3.0 0.00 0.00 0.00 57 1014.6
20260507162650 59 260 1.0 3.0 0.00 0.00 0.00 55 1014.5
20260507162146 59 166 0.0 0.0 0.00 0.00 0.00 59 1014.4
20260507161642 60 327 0.0 1.0 0.00 0.00 0.00 62 1014.5
20260507161139 60 167 0.0 0.0 0.00 0.00 0.00 58 1014.6
20260507160635 59 161 0.0 0.0 0.00 0.00 0.00 56 1014.8
20260507160132 59 165 0.0 0.0 0.00 0.00 0.00 55 1014.6
20260507155628 59 242 1.0 2.0 0.00 0.00 0.00 54 1014.6
20260507155125 60 204 0.0 0.0 0.00 0.00 0.00 55 1014.6
20260507154621 60 167 0.0 0.0 0.00 0.00 0.00 61 1014.7
20260507154119 60 116 0.0 0.0 0.00 0.00 0.00 69 1014.7
20260507153615 59 243 1.0 2.0 0.00 0.00 0.00 60 1014.4
20260507153112 58 168 0.0 1.0 0.00 0.00 0.00 58 1014.6
20260507152608 58 152 0.0 0.0 0.00 0.00 0.00 65 1014.6
20260507152104 57 178 0.0 0.0 0.00 0.00 0.00 62 1014.5
20260507151600 57 256 0.0 0.0 0.00 0.00 0.00 63 1014.7
20260507151057 57 170 0.0 0.0 0.00 0.00 0.00 63 1014.6
20260507150554 57 151 0.0 0.0 0.00 0.00 0.00 65 1014.5
20260507150051 57 175 0.0 0.0 0.00 0.00 0.00 67 1014.7
20260507145546 57 162 0.0 0.0 0.00 0.00 0.00 68 1014.7
20260507145044 56 173 0.0 0.0 0.00 0.00 0.00 68 1014.8
20260507144540 56 79 0.0 0.0 0.00 0.00 0.00 79 1014.6
20260507144038 56 198 0.0 0.0 0.00 0.00 0.00 69 1014.6
20260507143535 56 173 0.0 0.0 0.00 0.00 0.00 73 1014.7
20260507143033 55 179 0.0 1.0 0.00 0.00 0.00 69 1014.7
20260507142527 55 254 1.0 1.0 0.00 0.00 0.00 68 1014.8
20260507142025 55 177 0.0 0.0 0.00 0.00 0.00 79 1014.6
20260507141521 55 207 0.0 0.0 0.00 0.00 0.00 73 1014.3
20260507141017 55 192 2.0 3.0 0.00 0.00 0.00 73 1014.5
20260507140514 54 220 0.0 0.0 0.00 0.00 0.00 74 1014.5
20260507140012 53 257 0.0 0.0 0.00 0.00 0.00 76 1014.2
20260507135509 53 255 3.0 3.0 0.00 0.00 0.00 76 1014.4
20260507135006 53 204 0.0 1.0 0.00 0.00 0.00 83 1014.4
20260507134502 53 256 0.0 0.0 0.00 0.00 0.00 82 1014.2
20260507133958 52 192 1.0 1.0 0.00 0.00 0.00 79 1014.2
20260507133454 52 180 0.0 0.0 0.00 0.00 0.00 86 1014.3
20260507132953 52 170 0.0 0.0 0.00 0.00 0.00 84 1014.2
20260507132449 51 155 0.0 0.0 0.00 0.00 0.00 82 1014.0
20260507131945 51 236 0.0 0.0 0.00 0.00 0.00 86 1014.3
20260507131442 50 180 0.0 0.0 0.00 0.00 0.00 84 1014.3
20260507130939 50 177 0.0 0.0 0.00 0.00 0.00 88 1014.0
20260507130436 50 170 1.0 1.0 0.00 0.00 0.00 87 1014.2
20260507125935 49 319 2.0 2.0 0.00 0.00 0.00 90 1014.4
20260507125433 49 183 0.0 0.0 0.00 0.00 0.00 93 1014.2
20260507124930 49 286 0.0 1.0 0.00 0.00 0.00 93 1014.3
20260507124426 48 275 1.0 2.0 0.00 0.00 0.00 95 1014.2
20260507123924 47 187 0.0 1.0 0.00 0.00 0.00 96 1014.2
20260507123422 47 193 0.0 0.0 0.00 0.00 0.00 97 1014.0
20260507122918 47 194 0.0 0.0 0.00 0.00 0.00 97 1013.9
20260507122413 47 184 0.0 0.0 0.00 0.00 0.00 98 1014.0
20260507121910 47 174 0.0 0.0 0.00 0.00 0.00 98 1014.0
20260507121405 47 180 0.0 0.0 0.00 0.00 0.00 98 1013.9
20260507120902 47 177 0.0 0.0 0.00 0.00 0.00 98 1013.9
20260507120358 47 181 0.0 0.0 0.00 0.00 0.00 98 1013.8
20260507115854 47 177 0.0 0.0 0.00 0.00 0.00 98 1013.8
20260507115350 47 174 0.0 0.0 0.00 0.00 0.00 98 1013.8
20260507114846 47 166 0.0 0.0 0.00 0.00 0.00 97 1013.8
20260507114343 47 172 0.0 0.0 0.00 0.00 0.00 97 1013.6
20260507113841 47 174 0.0 0.0 0.00 0.00 0.00 97 1013.7
20260507113338 47 176 0.0 0.0 0.00 0.00 0.00 97 1013.5
20260507112835 47 166 0.0 0.0 0.00 0.00 0.00 97 1013.4
20260507112332 47 168 0.0 0.0 0.00 0.00 0.00 97 1013.4
20260507111830 47 180 0.0 0.0 0.00 0.00 0.00 96 1013.3
20260507111326 47 179 0.0 1.0 0.00 0.00 0.00 96 1013.0
20260507110822 47 178 0.0 0.0 0.00 0.00 0.00 97 1013.0
20260507110319 47 171 0.0 0.0 0.00 0.00 0.00 97 1013.2
20260507105816 47 166 0.0 0.0 0.00 0.00 0.00 96 1013.2
20260507105312 47 170 0.0 0.0 0.00 0.00 0.00 97 1012.9
20260507104809 47 170 0.0 0.0 0.00 0.00 0.00 97 1013.0
20260507104306 47 209 0.0 0.0 0.00 0.00 0.00 97 1012.8
20260507103802 47 213 0.0 0.0 0.00 0.00 0.00 97 1012.8
20260507103258 47 190 0.0 0.0 0.00 0.00 0.00 97 1013.2
20260507102755 47 191 0.0 0.0 0.00 0.00 0.00 97 1012.8
20260507102252 47 175 0.0 0.0 0.00 0.00 0.00 97 1012.7
20260507101748 48 175 0.0 0.0 0.00 0.00 0.00 97 1012.5
20260507101243 48 172 0.0 0.0 0.00 0.00 0.00 97 1012.5
20260507100740 48 174 0.0 0.0 0.00 0.00 0.00 96 1012.4
20260507100238 48 177 0.0 0.0 0.00 0.00 0.00 96 1012.7
20260507095736 48 174 0.0 0.0 0.00 0.00 0.00 96 1012.8
20260507095232 48 176 0.0 0.0 0.00 0.00 0.00 97 1012.7
20260507094729 48 180 1.0 1.0 0.00 0.00 0.00 97 1012.7
20260507094226 48 173 0.0 0.0 0.00 0.00 0.00 98 1012.7
20260507093723 48 175 0.0 0.0 0.00 0.00 0.00 98 1012.8
20260507093221 49 169 0.0 0.0 0.00 0.00 0.00 98 1012.7
20260507092719 49 170 0.0 0.0 0.00 0.00 0.00 98 1012.6
20260507092215 49 170 0.0 0.0 0.00 0.00 0.00 98 1012.9
20260507091711 49 177 0.0 0.0 0.00 0.00 0.00 98 1012.6
20260507091208 49 187 0.0 0.0 0.00 0.00 0.00 98 1012.8
20260507090703 49 167 0.0 0.0 0.00 0.00 0.00 98 1012.6
20260507090200 49 183 0.0 0.0 0.00 0.00 0.00 98 1012.4
20260507085657 49 172 0.0 0.0 0.00 0.00 0.00 98 1012.4
20260507085154 49 177 0.0 0.0 0.00 0.00 0.00 98 1012.5
20260507084651 49 213 0.0 0.0 0.00 0.00 0.00 98 1012.7
20260507084148 49 174 0.0 0.0 0.00 0.00 0.00 98 1012.9
20260507083644 49 164 0.0 0.0 0.00 0.00 0.00 98 1012.6
20260507083142 49 198 0.0 0.0 0.00 0.00 0.00 98 1012.9
20260507082637 49 169 0.0 0.0 0.00 0.00 0.00 98 1013.0
20260507082134 50 169 0.0 0.0 0.00 0.00 0.00 98 1012.5
20260507081631 50 175 0.0 0.0 0.00 0.00 0.00 98 1012.6
20260507081127 50 171 0.0 0.0 0.00 0.00 0.00 99 1012.4
20260507080623 50 174 0.0 0.0 0.00 0.00 0.00 98 1012.6
20260507080120 50 173 0.0 0.0 0.00 0.00 0.00 99 1012.5
20260507075620 49 195 0.0 0.0 0.00 0.00 0.00 99 1012.5
20260507075116 50 168 0.0 0.0 0.00 0.00 0.00 99 1012.8
20260507074613 50 177 0.0 0.0 0.00 0.00 0.00 99 1012.8
20260507074112 50 204 0.0 0.0 0.00 0.00 0.00 99 1012.9
20260507073608 50 175 0.0 0.0 0.00 0.00 0.00 99 1012.7
20260507073104 50 182 0.0 0.0 0.00 0.00 0.00 99 1012.8
20260507072602 50 204 0.0 0.0 0.00 0.00 0.00 99 1012.8
20260507072059 50 179 0.0 0.0 0.00 0.00 0.00 99 1012.7
20260507071556 50 180 0.0 0.0 0.00 0.00 0.00 99 1012.9
20260507071052 50 181 0.0 0.0 0.00 0.00 0.00 99 1012.8
20260507070549 50 194 0.0 0.0 0.00 0.00 0.00 99 1012.8
20260507070046 50 177 0.0 0.0 0.00 0.00 0.00 99 1013.2
20260507065543 50 176 0.0 0.0 0.00 0.00 0.00 99 1013.3
20260507065040 50 183 0.0 0.0 0.00 0.00 0.00 99 1012.9
20260507064538 50 179 0.0 0.0 0.00 0.00 0.00 99 1012.8
20260507064036 50 190 0.0 0.0 0.00 0.00 0.00 99 1012.9
20260507063533 50 181 0.0 0.0 0.00 0.00 0.00 99 1012.8
20260507063031 50 190 0.0 0.0 0.00 0.00 0.00 99 1012.5
20260507062527 50 181 0.0 0.0 0.00 0.00 0.00 99 1012.7
20260507062025 50 176 0.0 0.0 0.00 0.00 0.00 99 1012.4
20260507061522 51 174 0.0 0.0 0.00 0.00 0.00 99 1012.6
20260507061020 50 180 0.0 0.0 0.00 0.00 0.00 99 1012.8
20260507060518 50 176 0.0 0.0 0.00 0.00 0.00 99 1012.6
20260507060014 50 175 0.0 0.0 0.00 0.00 0.00 99 1012.4
20260507055509 50 175 0.0 0.0 0.00 0.00 0.00 99 1012.7
20260507055006 50 182 0.0 0.0 0.00 0.00 0.00 99 1012.6
20260507054501 50 179 0.0 0.0 0.00 0.00 0.00 99 1012.5
20260507053959 50 184 0.0 0.0 0.00 0.00 0.00 99 1013.0
20260507053457 50 192 0.0 0.0 0.00 0.00 0.00 99 1013.2
20260507052955 50 179 0.0 0.0 0.00 0.00 0.00 99 1013.2
20260507052452 50 184 0.0 0.0 0.00 0.00 0.00 99 1013.4
20260507051949 51 190 0.0 0.0 0.00 0.00 0.00 99 1013.4
20260507051447 51 176 0.0 0.0 0.00 0.00 0.00 99 1013.5
20260507050943 51 176 0.0 0.0 0.00 0.00 0.00 99 1013.3
20260507050440 51 176 0.0 0.0 0.00 0.00 0.00 99 1013.4
20260507045937 51 179 0.0 0.0 0.00 0.17 0.17 99 1013.6
20260507045433 51 179 0.0 0.0 0.00 0.17 0.17 99 1013.4
20260507044931 51 187 0.0 0.0 0.00 0.17 0.17 99 1013.8
20260507044427 51 191 0.0 0.0 0.00 0.17 0.17 99 1013.6
20260507043923 51 178 0.0 0.0 0.00 0.17 0.17 99 1013.6
20260507043420 51 184 0.0 0.0 0.00 0.17 0.17 99 1013.5
20260507042916 51 184 0.0 0.0 0.00 0.17 0.17 99 1013.2
20260507042413 51 188 0.0 0.0 0.00 0.17 0.17 99 1013.3
20260507041908 51 171 0.0 0.0 0.00 0.17 0.17 99 1012.9
20260507041405 51 171 0.0 0.0 0.00 0.17 0.17 99 1013.2
20260507040903 51 173 0.0 0.0 0.00 0.17 0.17 99 1013.2
20260507040358 51 189 0.0 0.0 0.00 0.17 0.17 99 1013.0
20260507035854 51 181 0.0 0.0 0.00 0.17 0.17 99 1013.0
20260507035351 52 179 0.0 0.0 0.00 0.17 0.17 99 1012.7
20260507034848 51 180 0.0 0.0 0.00 0.17 0.17 99 1012.8
20260507034345 51 175 0.0 0.0 0.00 0.17 0.17 99 1012.9
20260507033843 52 170 0.0 0.0 0.00 0.17 0.17 99 1013.2
20260507033341 52 189 0.0 0.0 0.00 0.17 0.17 99 1013.3
20260507032837 52 179 0.0 0.0 0.00 0.17 0.17 99 1013.2
20260507032333 52 185 0.0 0.0 0.00 0.17 0.17 99 1013.2
20260507031830 52 178 0.0 0.0 0.00 0.17 0.17 99 1013.4
20260507031327 52 179 0.0 0.0 0.00 0.17 0.17 99 1013.3
20260507030823 52 177 0.0 0.0 0.00 0.17 0.17 99 1013.2
20260507030321 52 175 0.0 0.0 0.00 0.17 0.17 99 1012.4
20260507025818 52 181 0.0 0.0 0.00 0.17 0.17 99 1012.6
20260507025315 52 171 0.0 0.0 0.00 0.17 0.17 99 1012.4
20260507024813 52 176 0.0 0.0 0.00 0.17 0.17 99 1012.4
20260507024310 52 171 0.0 0.0 0.00 0.17 0.17 99 1012.4
20260507023806 52 166 0.0 0.0 0.00 0.17 0.17 99 1012.8
20260507023302 52 223 0.0 0.0 0.00 0.17 0.17 99 1013.5
20260507022800 52 230 1.0 1.0 0.00 0.17 0.17 99 1013.4
20260507022256 52 171 0.0 0.0 0.00 0.17 0.17 99 1012.9
20260507021752 52 180 0.0 0.0 0.07 0.17 0.17 99 1013.5
20260507021248 52 178 0.0 0.0 0.07 0.17 0.17 99 1013.3
20260507020746 52 186 0.0 0.0 0.07 0.17 0.17 99 1013.0
20260507020242 52 180 0.0 0.0 0.00 0.16 0.16 99 1013.0
20260507015740 52 173 0.0 0.0 0.00 0.16 0.16 98 1012.9
20260507015237 52 170 0.0 0.0 0.00 0.16 0.16 98 1012.6
20260507014734 52 170 0.0 0.0 0.00 0.16 0.16 98 1013.0
20260507014230 52 172 0.0 0.0 0.00 0.16 0.16 98 1013.5
20260507013727 52 173 0.0 0.0 0.00 0.16 0.16 98 1013.5
20260507013224 52 175 0.0 0.0 0.00 0.16 0.16 98 1013.9